This demonstration page uses our WeatherBlox Daily Observations layout. Learn more.

Left ArrowRight Arrow

39.01783, -85.05884

Hourly Observations for December 12, 2017

Temp ( °F °C ) Dew Point ( °F °C ) Humidity (%) Winds ( mph kmh ) Pressure ( in mb ) Visibility ( mi km ) Precip ( " mm )
12:52 am 00:52 Mostly Cloudy 40 4.4 29 -1.7 65 65 W 24 39 29.75 1008 10 16 0.00 0.00
1:52 am 01:52 Cloudy 38 3.3 29 -1.7 70 70 W 22 35 29.78 1008 10 16 0.00 0.00
2:16 am 02:16 Cloudy 38 3.3 30 -1.1 73 73 WNW 26 43 29.80 1009 10 16 0.00 0.00
2:52 am 02:52 Cloudy 37 2.8 30 -1.1 76 76 NW 16 26 29.81 1009 10 16 0.00 0.00
3:52 am 03:52 Cloudy 36 2.2 30 -1.1 79 79 WNW 16 26 29.81 1010 7 11 0.00 0.00
4:39 am 04:39 Cloudy with Mist and Fog 35 1.7 31 -0.6 85 85 WNW 14 22 29.83 1010 6 10 0.00 0.00
4:52 am 04:52 Cloudy with Drizzle 35 1.7 31 -0.6 85 85 WNW 18 30 29.83 1010 6 10 0.00 0.03
5:27 am 05:27 Cloudy with Drizzle 34 1.1 32 0 92 92 WNW 14 22 29.85 1011 4 6 0.00 0.03
5:52 am 05:52 Cloudy with Drizzle 33 0.6 32 0 96 96 WNW 17 28 29.85 1011 4 6 0.00 0.03
6:30 am 06:30 Cloudy with Drizzle 33 0.6 32 0 96 96 WNW 18 30 29.88 1012 3 5 0.01 0.25
6:41 am 06:41 Cloudy with Light Wintry Mix 32 0 31 -0.6 96 96 NW 15 24 29.88 1012 4 6 0.01 0.25
6:52 am 06:52 Cloudy with Light Snow 32 0 31 -0.6 96 96 NW 15 24 29.87 1012 5 8 0.01 0.25
7:07 am 07:07 Cloudy with Light Snow 32 0 31 -0.6 96 96 NW 16 26 29.91 1013 1 2 0.01 0.25
7:24 am 07:24 Cloudy with Light Snow 32 0 31 -0.6 96 96 NW 14 22 29.91 1013 7 11 0.04 1.02
7:38 am 07:38 Windy with Snow Likely 31 -0.6 28 -2.2 89 89 WNW 20 31 29.94 1014 8 13 0.04 1.02
7:52 am 07:52 Cloudy with Light Snow 31 -0.6 27 -2.8 85 85 WNW 17 28 29.90 1013 8 13 0.04 1.02
8:52 am 08:52 Windy with Snow Likely 30 -1.1 26 -3.3 85 85 NW 20 31 29.91 1013 4 6 0.00 0.03
9:10 am 09:10 Cloudy with Light Snow 29 -1.7 26 -3.3 89 89 WNW 17 28 29.97 1015 4 6 0.00 0.03
9:25 am 09:25 Cloudy with Light Snow 29 -1.7 25 -3.9 85 85 NW 16 26 30.00 1016 4 6 0.00 0.03
9:52 am 09:52 Mostly Cloudy 28 -2.2 22 -5.6 78 78 NW 24 39 29.95 1014 10 16 0.00 0.03
10:18 am 10:18 Mostly Cloudy 29 -1.7 21 -6.1 72 72 WNW 22 35 30.00 1016 10 16 0.00 0.00
10:52 am 10:52 Mostly Cloudy 30 -1.1 21 -6.1 69 69 WNW 16 26 29.96 1015 10 16 0.00 0.00
11:10 am 11:10 Mostly Cloudy with Light Snow 27 -2.8 22 -5.6 81 81 WNW 21 33 30.03 1017 2 3 0.00 0.03
11:22 am 11:22 Mostly Cloudy with Light Snow 27 -2.8 21 -6.1 78 78 NW 16 26 30.03 1017 8 13 0.00 0.03
11:52 am 11:52 Mostly Cloudy 30 -1.1 20 -6.7 66 66 NW 18 30 29.96 1015 10 16 0.00 0.03
12:52 pm 12:52 Mostly Cloudy 29 -1.7 16 -8.9 58 58 NW 21 33 29.95 1014 10 16 0.00 0.00
1:52 pm 13:52 Mostly Cloudy 27 -2.8 12 -11.1 53 53 WNW 17 28 29.96 1015 10 16 0.00 0.00
2:52 pm 14:52 Mostly Cloudy 27 -2.8 12 -11.1 53 53 WNW 20 31 29.96 1015 10 16 0.00 0.00
3:52 pm 15:52 Mostly Cloudy 28 -2.2 11 -11.7 49 49 NW 22 35 29.96 1015 10 16 0.00 0.00
4:52 pm 16:52 Mostly Sunny 26 -3.3 9 -12.8 48 48 NW 15 24 29.98 1015 10 16 0.00 0.00
5:52 pm 17:52 Partly Cloudy 24 -4.4 10 -12.2 55 55 WNW 10 17 30.00 1016 10 16 0.00 0.00
6:52 pm 18:52 Mostly Cloudy 24 -4.4 9 -12.8 52 52 WNW 14 22 30.01 1016 10 16 0.00 0.00
7:52 pm 19:52 Mostly Clear 22 -5.6 9 -12.8 57 57 NW 8 13 30.02 1017 10 16 0.00 0.00
8:52 pm 20:52 Mostly Clear 21 -6.1 9 -12.8 59 59 WNW 9 15 30.03 1017 10 16 0.00 0.00
9:52 pm 21:52 Clear 20 -6.7 9 -12.8 62 62 NW 9 15 30.03 1017 10 16 0.00 0.00
10:52 pm 22:52 Clear 19 -7.2 10 -12.2 68 68 W 5 7 30.03 1017 10 16 0.00 0.00
11:52 pm 23:52 Clear 17 -8.3 10 -12.2 74 74 W 6 9 30.02 1017 10 16 0.00 0.00

Powered by AerisWeather